Погода в Северном

Россия / Республика Коми     67°36′08″N   64°06′51″E
темп.,
°C
ветер,
м/с
пор.,
м/с
влажн.,
%
обл.,
%
осадки,
мм/ч
давл.,
гПа
погр.,
м
28 июля, ср
ср2800:00+7св2497100 0.6 1001203
03:00+6св4995100 2.1 1001306
06:00+8св5892100 0.3 1002243
09:00+7св4894100 1.4 1002281
12:00+8св4794100 1.3 1003274
15:00+8св3595100 2.4 1003226
18:00+8всв1296100 0.2 100354
21:00+8ссв1194100 0.3 100319
29 июля, чт
чт2900:00+7ссв1193100 0.1 100314
03:00+7ссв1193100 0.1 100343
06:00+9зсз118596 0.0 1003327
09:00+11зсз117776 0.4 1004620
12:00+13зюз2169100 1.1 1004859
15:00+13ссз4372100 1.9 1003719
18:00+11ссз4780100 0.1 1004318
21:00+9с51089100 0.1 1003324
30 июля, пт
пт3000:00+7ссз5895100 0.0 1003275
03:00+7ссз51098100 2.9 1001432
06:00+7ссз71197100 2.8 1000634
09:00+8ссз61097100 4.0 999610
12:00+9сз71196100 6.7 998452
15:00+10сз71098100 8.3 997401
18:00+10ссз5898100 2.4 997376
21:00+9вюв239998 2.6 998241
31 июля, сб
сб3100:00+7юв469889 0.0 999300
03:00+7юв359895 0.1 1000258
06:00+8юв349685 0.1 1000331
09:00+9ю228693 0.1 1001590
12:00+9ююз338988 0.1 1002416
15:00+9ююз339089 0.3 1003402
18:00+8ю339597 0.1 1003253
21:00+7юв239678 0.1 1003133
1 августа, вс
вс100:00+5в339456 0.0 100340
03:00+6в469075 0.0 100192
06:00+10вюв4674100 0.0 1000241
09:00+9в3690100 0.6 999182
12:00+9всв3596100 1.3 999172
15:00+9всв3597100 4.8 1000196
18:00+9всв2396100 1.8 100087
21:00+9ссв2496100 2.1 100091